Location: Buffign�court
(47.8126°N, 6.0176°E)
Time: 20:29:37
(UTC+00:00)

Meteor 1-4 Rocket - Pass Details

Date: 16 June 2021
Orbit: 446 x 499 km, 81.2° (Epoch: 23 July)

Event Time Altitude Azimuth Distance (km) Brightness Sun altitude
Rises 23:38:16 0° 347° (NNW) 2,495 7.7 -18.8°
Reaches altitude 10° 23:40:22 10° 347° (NNW) 1,608 6.4 -18.8°
Maximum altitude 23:43:52 80° 261° (W) 466 2.3 -18.8°
Enters shadow 23:44:21 63° 191° (S) 508 2.3 -18.8°
